Home > Weather > New Haven > Past weeks

Flag for U.S.A. Weather for the Past 2 Weeks in New Haven, Connecticut, U.S.A.

Now
27 °F

Light snow. Ice fog.


Feels Like: 14 °F
Forecast: 24 / 35 °F
Wind: 20 mph from North

Location: Tweed-New Haven Airport

Current Time: Feb 8, 2016 at 10:14:59 AM

Latest Report: Feb 8, 2016 at 9:53 AM


Visibility: 1 mi

Pressure: 29.80 "Hg

Humidity: 85%

Dew point: 23 °F

Location of New HavenLocation

Historic Weather in New Haven — Graph

°F

New Haven Temperature Yesterday

Maximum temperature yesterday: 41 °F (at 11:53 AM)
Minimum temperature yesterday: 20 °F (at 6:53 AM)
Average temperature yesterday: 32 °F

High & Low Weather Summary for the Past Weeks

 TemperatureHumidityPressure
High59 °F (Feb 1, 1:53 PM)100% (Jan 26, 7:53 AM)30.42 "Hg (Jan 26, 7:53 AM)
Low11 °F (Jan 25, 6:53 AM)31% (Jan 24, 2:53 PM)29.41 "Hg (Jan 29, 11:53 AM)
Average36 °F71%30.01 "Hg
* Reported Jan 24 8:53 AM — Feb 8 8:53 AM, New Haven, Weather by CustomWeather, © 2016

Note: Actual official high and low records may vary slightly from our data, if they occured in-between our weather recording intervals... More about our weather records

Advertising

New Haven Weather History for the Previous 24 Hours

 ConditionsComfort  
Time TempWeatherWind HumidityBarometerVisibility
8:53 AM
Mon, Feb 8
29 °FLight snow. Mostly cloudy.15 mph82%29.80 "Hg1 mi
8:02 AM32 °FLight snow. Overcast.18 mph73%29.80 "Hg1 mi
7:53 AM33 °FLight snow. Fog.14 mph70%29.80 "Hg5 mi
6:53 AM35 °FMostly cloudy.14 mph67%29.78 "Hg10 mi
5:53 AM37 °FOvercast.21 mph65%29.76 "Hg10 mi
4:53 AM37 °FOvercast.14 mph70%29.73 "Hg10 mi
3:53 AM36 °FOvercast.15 mph73%29.76 "Hg10 mi
2:53 AM35 °FPassing clouds.15 mph75%29.78 "Hg10 mi
1:53 AM36 °FPassing clouds.16 mph73%29.83 "Hg10 mi
12:53 AM36 °FClear.13 mph70%29.88 "Hg10 mi
11:53 PM
Sun, Feb 7
36 °FClear.14 mph62%29.93 "Hg10 mi
10:53 PM37 °FClear.10 mph57%29.96 "Hg10 mi
9:53 PM38 °FClear.10 mph60%29.98 "Hg10 mi
8:53 PM38 °FClear.7 mph58%30.00 "Hg10 mi
7:53 PM38 °FMostly cloudy.7 mph63%30.01 "Hg10 mi
6:53 PM35 °FClear.3 mph70%30.04 "Hg10 mi
5:53 PM35 °FMostly cloudy.No wind70%30.06 "Hg10 mi
4:53 PM37 °FMore clouds than sun.No wind67%30.06 "Hg10 mi
3:53 PM40 °FBroken clouds.5 mph55%30.06 "Hg10 mi
2:53 PM37 °FPartly sunny.6 mph73%30.10 "Hg10 mi
1:53 PM38 °FPartly sunny.7 mph68%30.12 "Hg10 mi
12:53 PM38 °FPartly sunny.8 mph68%30.13 "Hg10 mi
11:53 AM41 °FScattered clouds.No wind51%30.12 "Hg10 mi
10:53 AM36 °FSunny.6 mph59%30.16 "Hg10 mi
Weather by CustomWeather, © 2016

See weather overviewHow to use our weather pages